sat.trackr.live / text

‹ back to catalog

STARLINK-4459

NORAD 53670 · 2022-105Y

PAYLOAD ACTIVE UNKNOWN

§ Identity

Operator
Country
US
Launch date
2022-08-31
Launch site
AFWTR
Launch vehicle
Mass (kg)
RCS (m²)

Purposes: comms

External: N2YO · Heavens-Above · Gunter

§ Orbital elements

Epoch: 2026-05-25T02:38:59.214912Z

Period
95.64 min
Inclination
97.4516°
Eccentricity
0.0002310
Mean motion
15.05649829 rev/d
Perigee alt
547.9 km
Apogee alt
551.1 km
Semi-major
6,927.6 km
B*
-2.9429e-5
RAAN
26.2043°
Arg perigee
74.1071°
Mean anomaly
286.0411°
Rev number
20,480

§ Raw data

STARLINK-44591 53670U 22105Y   26145.11040758 -.00000483  00000+0 -29429-4 0  99912 53670  97.4516  26.2043 0002310  74.1071 286.0411 15.05649829204803

JSON: /api/v1/satellites/53670 · /tle

For live sub-satellite position, see the globe view (requires WebGL).

§ Visibility from observer

Set your observer location to see the next 7 days of passes ≥ 10°. The values pass through the URL so the page stays shareable.

No JS? Fill the form by hand. The geolocation button needs JavaScript.